Flag for Germany Weather past 2 weeks in Moers, North Rhine-Westphalia, Germany

Now
64 °F

Partly sunny.


Feels Like: 64 °F
Forecast: 50 / 68 °F
Wind: 5 mph from Northwest

Location: Duesseldorf

Current Time: Sep 1, 2014 at 3:44:27 PM

Latest Report: Sep 1, 2014 at 3:20 PM


Visibility: N/A

Pressure: 30.12 "Hg

Humidity: 68%

Dew point: 54 °F

Location of MoersLocation

Historic Weather in Moers — Graph

°F

Moers temperature yesterday

Maximum temperature yesterday: 63 °F (at 12:20 PM)
Minimum temperature yesterday: 55 °F (at 2:50 AM)
Average temperature yesterday: 58 °F

Past Weeks' High & Low Weather Summary

 TemperatureHumidityPressure
High73 °F (Aug 28, 2:20 PM)100% (Aug 26, 8:20 AM)30.15 "Hg (Aug 26, 8:20 AM)
Low46 °F (Aug 20, 2:50 AM)40% (Aug 27, 4:20 PM)29.62 "Hg (Aug 26, 4:50 AM)
Average58 °F78%29.93 "Hg
* Reported Aug 17 2:20 PM — Sep 1 2:20 PM, Moers, Weather by CustomWeather, © 2014

Note: Actual official high and low records may vary slightly from our data, if they occured in-between our weather recording intervals... More about our weather records

Advertising

Moers weather history for previous 24 hours

 ConditionsComfort  
Time TempWeatherWind HumidityBarometerVisibility
2:20 PM
Sep 1
64 °FPartly sunny.3 mph68%30.15 "HgN/A
1:50 PM64 °FPartly sunny.3 mph73%30.15 "HgN/A
1:20 PM63 °FPartly sunny.5 mph77%30.15 "HgN/A
12:50 PM61 °FPartly sunny.2 mph88%30.15 "HgN/A
12:20 PM59 °FPartly sunny.2 mph88%30.15 "HgN/A
11:50 AM57 °FPartly sunny.6 mph94%30.15 "Hg6 mi
11:20 AM57 °FPartly sunny.6 mph100%30.15 "Hg4 mi
10:50 AM55 °FFog.6 mph100%30.15 "Hg3 mi
10:20 AM55 °FFog.3 mph100%30.15 "Hg1 mi
9:50 AM54 °FFog.3 mph100%30.12 "Hg1 mi
9:20 AM54 °FFog.5 mph100%30.12 "Hg1 mi
8:50 AM54 °FFog.3 mph100%30.12 "Hg1 mi
8:20 AM54 °FFog.3 mph100%30.12 "Hg0 mi
7:50 AM54 °FFog.5 mph100%30.12 "Hg0 mi
7:20 AM54 °FFog.5 mph100%30.12 "Hg0 mi
6:50 AM54 °FFog.5 mph100%30.12 "Hg1 mi
6:20 AM54 °FFog.5 mph100%30.12 "Hg1 mi
5:50 AM54 °FFog.5 mph100%30.12 "Hg1 mi
5:20 AM52 °FFog.3 mph100%30.09 "Hg1 mi
4:50 AM50 °FFog.2 mph100%30.09 "Hg2 mi
4:20 AM48 °FCool.2 mph100%30.09 "Hg1 mi
3:50 AM48 °FFog.2 mph94%30.09 "Hg0 mi
3:20 AM48 °FCool.3 mph94%30.07 "Hg1 mi
2:50 AM48 °FCool.1 mph94%30.07 "Hg4 mi
2:20 AM50 °FCool.2 mph94%30.07 "Hg6 mi
1:50 AM50 °FFog.2 mph100%30.07 "HgN/A
1:20 AM50 °FFog.1 mph94%30.07 "HgN/A
12:50 AM52 °FFog.2 mph88%30.07 "HgN/A
12:20 AM54 °FFog.3 mph94%30.07 "HgN/A
11:50 PM
Aug 31
55 °FClear.2 mph88%30.04 "Hg10 mi
11:20 PM55 °FClear.5 mph88%30.04 "Hg10 mi
10:50 PM55 °FClear.6 mph94%30.04 "Hg10 mi
10:20 PM55 °FClear.6 mph94%30.04 "Hg10 mi
9:50 PM57 °FPassing clouds.5 mph88%30.01 "HgN/A
9:20 PM57 °FScattered clouds.5 mph94%30.01 "HgN/A
8:50 PM59 °FBroken clouds.6 mph88%30.01 "HgN/A
8:20 PM59 °FScattered clouds.6 mph88%29.98 "HgN/A
7:50 PM59 °FPartly sunny.6 mph88%29.98 "HgN/A
7:20 PM59 °FSprinkles. Partly sunny.6 mph88%29.98 "HgN/A
6:50 PM59 °FPartly sunny.6 mph88%29.98 "HgN/A
6:20 PM59 °FPartly sunny.6 mph88%29.98 "HgN/A
5:50 PM57 °FSprinkles. Partly sunny.7 mph94%29.98 "HgN/A
5:20 PM57 °FScattered showers. Partly sunny.6 mph94%29.98 "HgN/A
4:50 PM57 °FSprinkles. Broken clouds.7 mph88%29.95 "HgN/A
4:20 PM59 °FSprinkles. Broken clouds.6 mph88%29.95 "HgN/A
3:50 PM61 °FLots of rain. Partly sunny.9 mph77%29.95 "Hg5 mi
3:20 PM61 °FSprinkles. Scattered clouds.5 mph72%29.95 "HgN/A
Weather by CustomWeather, © 2014

See weather overviewHow to use our weather pages